[[{"header":{"parameterUnit":"m.s-1","parameterCategory":1,"la1":30.2991,"la2":30.254,"lo1":-89.0895,"lo2":-89.0444,"dy":0.0017,"dx":0.0017,"nx":28,"ny":28,"refTime":"2025-12-01T03:00:00:Z","depth":0,"parameterNumber":2,"parameterNumberName":"U-component_of_WINDS"},"data":[0,0,0,0,0,0,0,0,0,0,0,0,0,0,0,0,0,0,0,0,0,0,0,0,0,0,0,0,0,0,0,0,0,0,0,0,0,0,0,0,0,0,0,0,0,0,0,0,0,0,0,0,0,0,0,0,0,0,-2.6323,-2.6324,0,-2.6404,-2.6405,-2.6406,-2.6366,-2.6364,-2.6362,-2.636,-2.6442,-2.6446,-2.645,0,0,0,0,0,0,0,0,0,0,0,0,0,-2.6133,-2.6136,-2.6323,-2.6324,-2.6325,-2.6404,-2.6405,-2.6406,-2.6366,-2.6364,-2.6361,-2.6359,-2.644,-2.6445,-2.645,0,0,0,0,0,0,0,0,0,0,0,0,0,-2.6215,-2.6138,-2.6323,-2.6315,-2.6315,-2.6404,-2.6405,-2.6407,-2.6367,-2.6364,-2.636,-2.6358,-2.6439,-2.6445,-2.6451,-2.6553,0,0,-2.647,-2.6473,0,0,0,0,0,0,0,0,-2.621,-2.6222,-2.6315,-2.6315,-2.6316,-2.6372,-2.6368,-2.6455,-2.6368,-2.6347,-2.636,-2.6356,-2.6421,-2.6428,-2.6451,-2.6556,-2.656,-2.6471,-2.6474,-2.6477,-2.6479,0,0,0,0,0,0,0,-2.6204,-2.6218,-2.6355,-2.6316,-2.6317,-2.6307,-2.6315,-2.6384,-2.6401,-2.6349,-2.6346,-2.6356,-2.6421,-2.6445,-2.6452,-2.6561,-2.647,-2.6476,-2.648,-2.6482,-2.6754,-2.6757,0,0,0,0,0,0,-2.6199,-2.6214,-2.6353,-2.6358,-2.6254,-2.6313,-2.6322,-2.6357,-2.64,-2.6403,-2.6359,-2.6354,-2.6436,-2.6445,-2.6455,-2.6577,-2.6477,-2.6483,-2.6486,-2.6751,-2.6755,-2.6759,0,0,0,0,0,0,-2.6195,-2.6212,-2.6349,-2.6285,-2.6302,-2.6319,-2.6359,-2.636,-2.6384,-2.6407,-2.641,-2.638,-2.6433,-2.6446,-2.6529,-2.6579,-2.6486,-2.6491,-2.6746,-2.6752,-2.6757,-2.6822,0,0,0,0,0,0,-2.619,-2.6211,-2.625,-2.6286,-2.6305,-2.6422,-2.6362,-2.6364,-2.6395,-2.639,-2.6429,-2.6432,-2.6432,-2.652,-2.6535,-2.6586,-2.6496,-2.6742,-2.6749,-2.6755,-2.6815,-2.6829,-2.684,0,0,0,0,0,-2.6183,-2.6265,-2.6252,-2.6269,-2.6355,-2.6425,-2.6436,-2.6435,-2.6399,-2.6439,-2.6454,-2.6431,-2.6571,-2.6528,-2.6545,-2.6599,-2.6739,-2.6747,-2.6755,-2.681,-2.6826,-2.684,0,0,0,0,0,0,-2.6234,-2.627,-2.6256,-2.6352,-2.6386,-2.6419,-2.6468,-2.6452,-2.6497,-2.649,-2.6486,-2.6495,-2.6581,-2.6598,-2.655,-2.67,-2.6649,-2.6661,-2.6686,-2.6701,-2.6714,-2.6708,-2.6501,0,0,0,0,0,-2.6257,-2.6312,-2.6339,-2.6421,-2.6439,-2.6451,-2.6481,-2.6477,-2.6513,-2.6527,-2.6547,-2.6582,-2.6634,-2.6668,-2.6717,-2.6817,-2.6825,-2.6862,-2.6875,-2.6885,-2.6895,-2.695,-2.6967,-2.6784,-2.6784,-2.6784,0,0,-2.6304,-2.633,-2.6365,-2.6432,-2.6458,-2.6515,-2.6463,-2.6525,-2.6567,-2.6536,-2.6616,-2.6632,-2.667,-2.6762,-2.6803,-2.6779,-2.6947,-2.6895,-2.6903,-2.6908,-2.6959,-2.6977,-2.6992,-2.679,-2.6789,-2.6788,0,0,-2.6419,-2.6444,-2.6515,-2.6542,-2.6582,-2.6589,-2.6606,-2.6641,-2.6651,-2.673,-2.6708,-2.6757,-2.6847,-2.6875,-2.6901,-2.7026,-2.7007,-2.7042,-2.7107,-2.716,-2.7175,-2.7187,-2.7232,-2.7249,-2.7052,-2.7052,-2.7052,0,-2.6472,-2.6557,-2.6553,-2.6618,-2.6648,-2.6622,-2.6694,-2.672,-2.6774,-2.6795,-2.6767,-2.6878,-2.6902,-2.7,-2.7031,-2.7052,-2.7072,-2.7038,-2.7173,-2.7186,-2.7197,-2.724,-2.7257,-2.7056,-2.7056,-2.7055,-2.7055,0,-2.6621,-2.668,-2.6733,-2.6786,-2.6822,-2.689,-2.6896,-2.6932,-2.6925,-2.6935,-2.7016,-2.7043,-2.7098,-2.712,-2.7113,-2.7217,-2.7201,-2.7173,-2.7123,-2.7219,-2.7259,-2.7276,-2.7062,-2.706,-2.7059,-2.7058,0,0,-2.6772,-2.6821,-2.6841,-2.6865,-2.6907,-2.6952,-2.7018,-2.7071,-2.7103,-2.7141,-2.7196,-2.7272,-2.7246,-2.7276,-2.7271,-2.7318,-2.7415,-2.7284,-2.7285,-2.7308,-2.7532,-2.7554,-2.7573,-2.7402,-2.7405,-2.7408,-2.7529,0,-2.689,-2.7007,-2.7005,-2.7113,-2.7168,-2.7143,-2.7201,-2.7232,-2.7243,-2.7291,-2.7302,-2.7356,-2.7318,-2.7335,-2.738,-2.7394,-2.746,-2.7385,-2.7454,-2.7456,-2.7447,-2.7594,-2.7618,-2.7731,-2.7545,-2.7547,-2.7549,0,-2.7045,-2.7088,-2.7202,-2.7235,-2.7258,-2.731,-2.7359,-2.7404,-2.7439,-2.7444,-2.7477,-2.7465,-2.7531,-2.7478,-2.757,-2.7519,-2.7546,-2.7557,-2.7562,-2.7569,-2.751,-2.7607,-2.7767,-2.7785,-2.7574,-2.7572,-2.757,0,-2.7145,-2.7231,-2.731,-2.7331,-2.7372,-2.7409,-2.7428,-2.746,-2.7492,-2.7534,-2.7554,-2.7603,-2.763,-2.7668,-2.767,-2.7631,-2.7763,-2.7709,-2.7768,-2.7768,-2.7798,-2.7797,-2.7967,-2.7814,-2.7814,-2.7814,-2.7813,0,-2.7278,-2.7349,-2.7356,-2.7405,-2.7483,-2.7479,-2.7557,-2.7572,-2.76,-2.7651,-2.7632,-2.768,-2.7679,-2.7728,-2.7729,-2.7805,-2.7817,-2.7822,-2.7822,-2.7825,-2.7825,-2.7844,-2.7837,-2.7818,-2.7817,-2.7816,-2.7816,0,-2.7404,-2.7411,-2.7496,-2.7528,-2.7537,-2.7594,-2.762,-2.7667,-2.7675,-2.774,-2.7755,-2.7768,-2.7824,-2.7829,-2.7894,-2.7895,-2.7987,-2.7978,-2.7976,-2.7975,-2.8034,-2.8029,-2.8224,-2.8249,-2.8079,-2.8081,-2.8082,0,-2.7489,-2.7543,-2.7581,-2.7614,-2.7635,-2.7688,-2.772,-2.7718,-2.7753,-2.7797,-2.7838,-2.7892,-2.7936,-2.8027,-2.8042,-2.8091,-2.8084,-2.8148,-2.8091,-2.8092,-2.8086,-2.8083,-2.8089,-2.816,-2.8162,-2.8164,-2.8165,0,-2.7641,-2.7641,-2.7689,-2.7739,-2.7778,-2.7817,-2.7853,-2.7881,-2.7883,-2.7922,-2.798,-2.8014,-2.808,-2.8135,-2.8183,-2.8201,-2.8184,-2.8182,-2.8199,-2.8203,-2.82,-2.8203,-2.8008,-2.8178,-2.8177,-2.8176,-2.8175,-2.8175,-2.7749,-2.7796,-2.783,-2.7884,-2.7911,-2.7945,-2.799,-2.8004,-2.8052,-2.8106,-2.8102,-2.8166,-2.8198,-2.8261,-2.8283,-2.8333,-2.8311,-2.8335,-2.8341,-2.8347,-2.8354,-2.8191,-2.8341,-2.8341,-2.8341,-2.834,-2.834,0,-2.7901,-2.7921,-2.797,-2.8022,-2.8064,-2.8043,-2.8082,-2.8118,-2.8175,-2.8207,-2.825,-2.8316,-2.8369,-2.8387,-2.8438,-2.8474,-2.8467,-2.8488,-2.8486,-2.849,-2.837,-2.8351,-2.8492,-2.8492,-2.8492,-2.8492,-2.8492,-2.8492,-2.7984,-2.8063,-2.8067,-2.8158,-2.8178,-2.8241,-2.8264,-2.8296,-2.8321,-2.8396,-2.8439,-2.8451,-2.8478,-2.8531,-2.8577,-2.8581,-2.8601,-2.8626,-2.8626,-2.8514,-2.8499,-2.8484,-2.8466,-2.863,-2.863,-2.8743,-2.8744,-2.8745]},{"header":{"parameterUnit":"m.s-1","parameterCategory":1,"la1":30.2991,"la2":30.254,"lo1":-89.0895,"lo2":-89.0444,"dy":0.0017,"dx":0.0017,"nx":28,"ny":28,"refTime":"2025-12-01T03:00:00:Z","depth":0,"parameterNumber":3,"parameterNumberName":"V-component_of_WINDS"},"data":[0,0,0,0,0,0,0,0,0,0,0,0,0,0,0,0,0,0,0,0,0,0,0,0,0,0,0,0,0,0,0,0,0,0,0,0,0,0,0,0,0,0,0,0,0,0,0,0,0,0,0,0,0,0,0,0,0,0,-7.2904,-7.2905,0,-7.2989,-7.299,-7.2991,-7.2919,-7.2916,-7.2913,-7.2911,-7.2991,-7.2995,-7.3,0,0,0,0,0,0,0,0,0,0,0,0,0,-7.2672,-7.2677,-7.2904,-7.2905,-7.2906,-7.2989,-7.299,-7.2991,-7.292,-7.2916,-7.2913,-7.2909,-7.2989,-7.2995,-7.3001,0,0,0,0,0,0,0,0,0,0,0,0,0,-7.2767,-7.2679,-7.2903,-7.288,-7.2879,-7.2988,-7.299,-7.2991,-7.2921,-7.2916,-7.2912,-7.2907,-7.2987,-7.2994,-7.3001,-7.3135,0,0,-7.3024,-7.3027,0,0,0,0,0,0,0,0,-7.2761,-7.2775,-7.2883,-7.2882,-7.2881,-7.2939,-7.2937,-7.3039,-7.2922,-7.2905,-7.291,-7.2905,-7.2977,-7.2984,-7.301,-7.3139,-7.3143,-7.3024,-7.3029,-7.3032,-7.3034,0,0,0,0,0,0,0,-7.2755,-7.2771,-7.2937,-7.2884,-7.2883,-7.2863,-7.2872,-7.2956,-7.2964,-7.2906,-7.2901,-7.2912,-7.2975,-7.3003,-7.3011,-7.3144,-7.3024,-7.3031,-7.3035,-7.3038,-7.3387,-7.3391,0,0,0,0,0,0,-7.2752,-7.2766,-7.2934,-7.294,-7.2809,-7.2871,-7.2881,-7.2925,-7.2963,-7.2965,-7.2916,-7.2909,-7.2993,-7.3003,-7.3014,-7.3173,-7.3032,-7.3039,-7.3043,-7.3382,-7.3388,-7.3393,0,0,0,0,0,0,-7.2747,-7.2767,-7.2931,-7.2852,-7.2871,-7.288,-7.293,-7.2929,-7.2957,-7.2971,-7.2971,-7.2944,-7.299,-7.3003,-7.3106,-7.3175,-7.3042,-7.3049,-7.3376,-7.3384,-7.339,-7.3493,0,0,0,0,0,0,-7.2741,-7.2766,-7.2819,-7.2853,-7.2876,-7.3024,-7.2934,-7.2934,-7.297,-7.2962,-7.2997,-7.2998,-7.2987,-7.3096,-7.3113,-7.3182,-7.3055,-7.337,-7.3379,-7.3388,-7.3483,-7.3503,-7.3519,0,0,0,0,0,-7.2733,-7.2843,-7.2822,-7.2843,-7.2942,-7.3028,-7.3041,-7.3028,-7.2976,-7.3028,-7.3037,-7.2997,-7.3165,-7.3107,-7.3126,-7.3198,-7.3365,-7.3377,-7.3387,-7.3475,-7.3499,-7.3519,0,0,0,0,0,0,-7.2813,-7.2847,-7.2824,-7.2949,-7.2987,-7.3016,-7.3081,-7.3053,-7.3104,-7.3093,-7.3073,-7.3081,-7.319,-7.3204,-7.3139,-7.333,-7.3256,-7.3272,-7.3316,-7.3339,-7.3357,-7.335,-7.3061,0,0,0,0,0,-7.2846,-7.2916,-7.294,-7.3048,-7.3069,-7.3072,-7.3109,-7.3096,-7.3133,-7.3148,-7.3164,-7.32,-7.326,-7.33,-7.3357,-7.3485,-7.3491,-7.3544,-7.3562,-7.3577,-7.359,-7.3658,-7.3682,-7.3429,-7.3429,-7.3428,0,0,-7.2913,-7.294,-7.2985,-7.3065,-7.3093,-7.3163,-7.3086,-7.3163,-7.3215,-7.3159,-7.3257,-7.3271,-7.3309,-7.3425,-7.3477,-7.344,-7.3662,-7.3591,-7.3603,-7.3608,-7.3672,-7.3696,-7.3717,-7.3436,-7.3435,-7.3434,0,0,-7.3072,-7.3101,-7.3194,-7.3224,-7.3267,-7.3269,-7.3291,-7.3326,-7.3333,-7.3433,-7.3392,-7.3451,-7.3556,-7.3585,-7.3614,-7.3785,-7.3749,-7.3803,-7.3897,-7.3964,-7.3984,-7.4001,-7.4061,-7.4083,-7.3817,-7.3817,-7.3817,0,-7.315,-7.3257,-7.3244,-7.3326,-7.3361,-7.3317,-7.3409,-7.3438,-7.3497,-7.3522,-7.3481,-7.3612,-7.3634,-7.3756,-7.3798,-7.3823,-7.3846,-7.3799,-7.3982,-7.4,-7.4016,-7.4073,-7.4096,-7.3823,-7.3823,-7.3822,-7.3821,0,-7.335,-7.3425,-7.3494,-7.3556,-7.3599,-7.3686,-7.3684,-7.3729,-7.3712,-7.3718,-7.3818,-7.3844,-7.3905,-7.3933,-7.3916,-7.4053,-7.4029,-7.3986,-7.3911,-7.4047,-7.41,-7.4122,-7.3832,-7.383,-7.3828,-7.3827,0,0,-7.3561,-7.3615,-7.3641,-7.3668,-7.3714,-7.377,-7.3854,-7.3916,-7.3955,-7.3997,-7.4065,-7.4156,-7.4116,-7.4149,-7.4135,-7.4194,-7.4327,-7.4143,-7.4143,-7.4176,-7.4477,-7.4509,-7.4535,-7.4304,-7.4308,-7.4311,-7.4474,0,-7.3721,-7.3871,-7.3862,-7.4001,-7.4069,-7.4028,-7.4101,-7.4135,-7.4143,-7.42,-7.4206,-7.4271,-7.4214,-7.4234,-7.429,-7.4299,-7.4387,-7.4287,-7.4366,-7.4369,-7.4357,-7.4563,-7.4597,-7.4749,-7.4495,-7.4498,-7.4501,0,-7.3929,-7.3981,-7.4128,-7.4164,-7.4192,-7.4258,-7.4314,-7.437,-7.4408,-7.4409,-7.4446,-7.4422,-7.4505,-7.443,-7.4542,-7.4474,-7.4506,-7.4515,-7.4521,-7.4526,-7.4442,-7.4573,-7.4797,-7.4819,-7.4533,-7.4531,-7.4529,0,-7.4067,-7.4174,-7.4276,-7.43,-7.4345,-7.4392,-7.4412,-7.4446,-7.4484,-7.4532,-7.4556,-7.4612,-7.4643,-7.4686,-7.4678,-7.4624,-7.4792,-7.4716,-7.4794,-7.4794,-7.483,-7.4828,-7.5061,-7.4852,-7.4852,-7.4852,-7.4851,0,-7.4247,-7.4338,-7.4339,-7.4401,-7.4502,-7.449,-7.4589,-7.4603,-7.4633,-7.4696,-7.4663,-7.4722,-7.4708,-7.4766,-7.476,-7.4853,-7.4867,-7.4869,-7.4866,-7.4872,-7.4872,-7.4891,-7.488,-7.4858,-7.4856,-7.4855,-7.4854,0,-7.4418,-7.4423,-7.4531,-7.4565,-7.4576,-7.4648,-7.4676,-7.4733,-7.4739,-7.4819,-7.4836,-7.4844,-7.491,-7.4907,-7.4981,-7.4977,-7.5092,-7.5077,-7.5081,-7.5077,-7.5155,-7.5147,-7.5408,-7.5441,-7.5212,-7.5214,-7.5216,0,-7.4533,-7.4602,-7.4645,-7.4686,-7.471,-7.4776,-7.4815,-7.4806,-7.4847,-7.4896,-7.4948,-7.5012,-7.5063,-7.5171,-7.5181,-7.5238,-7.5224,-7.5311,-7.5232,-7.5235,-7.5224,-7.522,-7.5226,-7.5326,-7.5329,-7.5331,-7.5333,0,-7.4735,-7.4734,-7.4793,-7.4854,-7.4903,-7.4949,-7.4991,-7.5026,-7.5021,-7.5069,-7.5138,-7.5178,-7.5256,-7.5319,-7.5374,-7.5391,-7.5361,-7.5358,-7.5379,-7.5385,-7.5384,-7.5385,-7.5122,-7.5352,-7.535,-7.5349,-7.5347,-7.5347,-7.488,-7.494,-7.498,-7.5047,-7.5079,-7.5119,-7.5176,-7.5189,-7.5248,-7.5312,-7.5302,-7.5379,-7.5414,-7.5485,-7.5508,-7.5566,-7.5535,-7.5565,-7.5572,-7.558,-7.5589,-7.5376,-7.5576,-7.5576,-7.5575,-7.5575,-7.5574,0,-7.508,-7.5104,-7.5166,-7.5228,-7.5281,-7.5251,-7.5296,-7.5341,-7.5411,-7.5447,-7.5499,-7.5578,-7.5639,-7.5655,-7.5714,-7.5758,-7.5745,-7.5774,-7.577,-7.5774,-7.5614,-7.559,-7.5783,-7.5783,-7.5783,-7.5783,-7.5783,-7.5783,-7.519,-7.529,-7.5294,-7.5409,-7.5431,-7.5509,-7.5537,-7.5574,-7.5603,-7.5694,-7.5746,-7.5757,-7.5785,-7.5846,-7.59,-7.5903,-7.5926,-7.5959,-7.5957,-7.5806,-7.5785,-7.5765,-7.5743,-7.5965,-7.5965,-7.6112,-7.6113,-7.6114]}]]